FW2205 Weather Reports


Display with metric or nautical units.
time (UTC)temp
F
wind
direction
speed
MPH
gust
MPH
rain 1hr
in
rain 24hr
in
rain mn
in
humidity
%
barometer
mb
20190716015515 0 0.0 0.0 0.00 0.00 0.00
20190716015015 0 0.0 0.0 0.00 0.00 0.00
20190716014515 0 0.0 0.0 0.00 0.00 0.00
20190716014015 0 0.0 0.0 0.00 0.00 0.00
20190716013515 0 0.0 0.0 0.00 0.00 0.00
20190716013015 0 0.0 0.0 0.00 0.00 0.00
20190716012515 0 0.0 0.0 0.00 0.00 0.00
20190716012015 0 0.0 0.0 0.00 0.00 0.00
20190716011515 0 0.0 0.0 0.00 0.00 0.00
20190716011015 0 0.0 0.0 0.00 0.00 0.00
20190716010515 0 0.0 0.0 0.00 0.00 0.00
20190716010015 0 0.0 0.0 0.00 0.00 0.00
20190716005516 0 0.0 0.0 0.00 0.00 0.00
20190716005015 0 0.0 0.0 0.00 0.00 0.00
20190716004515 0 0.0 0.0 0.00 0.00 0.00
20190716004015 0 0.0 0.0 0.00 0.00 0.00
20190716003515 0 0.0 0.0 0.00 0.00 0.00
20190716003015 0 0.0 0.0 0.00 0.00 0.00
20190716002515 0 0.0 0.0 0.00 0.00 0.00
20190716002015 0 0.0 0.0 0.00 0.00 0.00
20190716001516 0 0.0 0.0 0.00 0.00 0.00
20190716001015 0 0.0 0.0 0.00 0.00 0.00
20190716000516 0 0.0 0.0 0.00 0.00 0.00
20190716000016 0 0.0 0.0 0.00 0.00 0.00
20190715235515 0 0.0 0.0 0.00 0.00 0.00
20190715235015 0 0.0 0.0 0.00 0.00 0.00
20190715234515 0 0.0 0.0 0.00 0.00 0.00
20190715234015 0 0.0 0.0 0.00 0.00 0.00
20190715233515 0 0.0 0.0 0.00 0.00 0.00
20190715233015 0 0.0 0.0 0.00 0.00 0.00
20190715232515 0 0.0 0.0 0.00 0.00 0.00
20190715232015 0 0.0 0.0 0.00 0.00 0.00
20190715231515 0 141 0.0 0.0 0.00 0.00 0.00
20190715231015 0 175 0.0 2.0 0.00 0.00 0.00
20190715230515 0 194 0.0 1.0 0.00 0.00 0.00
20190715230016 0 0.0 0.0 0.00 0.00 0.00
20190715225516 0 210 0.0 1.0 0.00 0.00 0.00
20190715225015 0 199 1.0 3.0 0.00 0.00 0.00
20190715224515 0 0.0 0.0 0.00 0.00 0.00
20190715224015 0 248 0.0 1.0 0.00 0.00 0.00
20190715223515 0 201 1.0 6.0 0.00 0.00 0.00
20190715223016 0 192 0.0 2.0 0.00 0.00 0.00
20190715222515 0 247 0.0 0.0 0.00 0.00 0.00
20190715222015 0 264 0.0 2.0 0.00 0.00 0.00
20190715221515 0 278 0.0 1.0 0.00 0.00 0.00
20190715221015 0 167 0.0 2.0 0.00 0.00 0.00
20190715220515 0 169 0.0 1.0 0.00 0.00 0.00
20190715220015 0 163 0.0 1.0 0.00 0.00 0.00
20190715215515 0 0.0 0.0 0.00 0.00 0.00
20190715215015 0 0.0 0.0 0.00 0.00 0.00
20190715214515 0 0.0 0.0 0.00 0.00 0.00
20190715214015 0 0.0 0.0 0.00 0.00 0.00
20190715213515 0 134 0.0 0.0 0.00 0.00 0.00
20190715213015 0 130 0.0 0.0 0.00 0.00 0.00
20190715212515 0 156 0.0 1.0 0.00 0.00 0.00
20190715212015 0 256 0.0 4.0 0.00 0.00 0.00
20190715211515 0 135 0.0 1.0 0.00 0.00 0.00
20190715211015 0 196 0.0 2.0 0.00 0.00 0.00
20190715210516 0 132 0.0 3.0 0.00 0.00 0.00
20190715210016 0 199 1.0 5.0 0.00 0.00 0.00
20190715205515 0 294 1.0 7.0 0.00 0.00 0.00
20190715205015 0 201 0.0 6.0 0.00 0.00 0.00
20190715204515 0 233 0.0 2.0 0.00 0.00 0.00
20190715204015 0 100 0.0 3.0 0.00 0.00 0.00
20190715203515 0 336 0.0 1.0 0.00 0.00 0.00
20190715203015 0 229 1.0 2.0 0.00 0.00 0.00
20190715202515 0 187 0.0 2.0 0.00 0.00 0.00
20190715202015 0 234 0.0 2.0 0.00 0.00 0.00
20190715201516 0 0.0 0.0 0.00 0.00 0.00
20190715201016 0 181 0.0 1.0 0.00 0.00 0.00
20190715200515 0 342 0.0 2.0 0.00 0.00 0.00
20190715200015 0 337 0.0 7.0 0.00 0.00 0.00
20190715195515 0 250 0.0 4.0 0.00 0.00 0.00
20190715195015 0 222 0.0 2.0 0.00 0.00 0.00
20190715194516 0 112 0.0 0.0 0.00 0.00 0.00
20190715194015 0 20 1.0 5.0 0.00 0.00 0.00
20190715193515 0 319 1.0 4.0 0.00 0.00 0.00
20190715193016 0 203 0.0 4.0 0.00 0.00 0.00
20190715192515 0 299 0.0 2.0 0.00 0.00 0.00
20190715192015 0 288 0.0 4.0 0.00 0.00 0.00
20190715191515 0 185 1.0 3.0 0.00 0.00 0.00
20190715191016 0 6 0.0 3.0 0.00 0.00 0.00
20190715190515 0 192 1.0 7.0 0.00 0.00 0.00
20190715190016 0 45 0.0 4.0 0.00 0.00 0.00
20190715185515 0 299 0.0 4.0 0.00 0.00 0.00
20190715185015 0 235 0.0 4.0 0.00 0.00 0.00
20190715184515 0 207 0.0 1.0 0.00 0.00 0.00
20190715184015 0 222 0.0 2.0 0.00 0.00 0.00
20190715183516 0 194 1.0 3.0 0.00 0.00 0.00
20190715183015 0 197 0.0 2.0 0.00 0.00 0.00
20190715182515 0 239 0.0 3.0 0.00 0.00 0.00
20190715182016 0 296 1.0 4.0 0.00 0.00 0.00
20190715181515 0 215 1.0 4.0 0.00 0.00 0.00
20190715181015 0 204 0.0 3.0 0.00 0.00 0.00
20190715180515 0 257 1.0 4.0 0.00 0.00 0.00
20190715180015 0 217 0.0 3.0 0.00 0.00 0.00
20190715175515 0 219 1.0 3.0 0.00 0.00 0.00
20190715175015 0 231 0.0 4.0 0.00 0.00 0.00
20190715174515 0 239 1.0 4.0 0.00 0.00 0.00
20190715174016 0 216 0.0 3.0 0.00 0.00 0.00
20190715173515 0 233 1.0 3.0 0.00 0.00 0.00
20190715173015 0 336 1.0 5.0 0.00 0.00 0.00
20190715172515 0 191 0.0 3.0 0.00 0.00 0.00
20190715172015 0 343 2.0 7.0 0.00 0.00 0.00
20190715171515 0 217 2.0 8.0 0.00 0.00 0.00
20190715171015 0 149 0.0 2.0 0.00 0.00 0.00
20190715170515 0 207 0.0 2.0 0.00 0.00 0.00
20190715170015 0 265 1.0 3.0 0.00 0.00 0.00
20190715165515 0 276 0.0 4.0 0.00 0.00 0.00
20190715165015 0 227 0.0 5.0 0.00 0.00 0.00
20190715164515 0 179 0.0 2.0 0.00 0.00 0.00
20190715164015 0 203 1.0 6.0 0.00 0.00 0.00
20190715163515 0 195 1.0 7.0 0.00 0.00 0.00
20190715163015 0 210 0.0 3.0 0.00 0.00 0.00
20190715162515 0 281 1.0 6.0 0.00 0.00 0.00
20190715162015 0 206 0.0 5.0 0.00 0.00 0.00
20190715161515 0 234 1.0 8.0 0.00 0.00 0.00
20190715161015 0 228 1.0 5.0 0.00 0.00 0.00
20190715160515 0 285 1.0 3.0 0.00 0.00 0.00
20190715160015 0 335 0.0 4.0 0.00 0.00 0.00
20190715155515 0 194 2.0 6.0 0.00 0.00 0.00
20190715155015 0 25 0.0 2.0 0.00 0.00 0.00
20190715154515 0 220 0.0 3.0 0.00 0.00 0.00
20190715154015 0 214 0.0 2.0 0.00 0.00 0.00
20190715153515 0 329 0.0 4.0 0.00 0.00 0.00
20190715153015 0 180 0.0 1.0 0.00 0.00 0.00
20190715152515 0 251 1.0 3.0 0.00 0.00 0.00
20190715152015 0 202 0.0 1.0 0.00 0.00 0.00
20190715151515 0 182 0.0 1.0 0.00 0.00 0.00
20190715151015 0 4 0.0 2.0 0.00 0.00 0.00
20190715150515 0 212 0.0 2.0 0.00 0.00 0.00
20190715150016 0 339 0.0 3.0 0.00 0.00 0.00
20190715145515 0 0.0 0.0 0.00 0.00 0.00
20190715145015 0 0.0 0.0 0.00 0.00 0.00
20190715144515 0 72 0.0 0.0 0.00 0.00 0.00
20190715144016 0 0.0 0.0 0.00 0.00 0.00
20190715143515 0 175 0.0 1.0 0.00 0.00 0.00
20190715143015 0 275 0.0 1.0 0.00 0.00 0.00
20190715142516 0 107 0.0 1.0 0.00 0.00 0.00
20190715142016 0 0.0 0.0 0.00 0.00 0.00
20190715141515 0 0.0 0.0 0.00 0.00 0.00
20190715141015 0 0.0 0.0 0.00 0.00 0.00
20190715140517 0 0.0 0.0 0.00 0.00 0.00
20190715140015 0 0.0 0.0 0.00 0.00 0.00
20190715135515 0 0.0 0.0 0.00 0.00 0.00
20190715135015 0 0.0 0.0 0.00 0.00 0.00
20190715134516 0 0.0 0.0 0.00 0.00 0.00
20190715134015 0 0.0 0.0 0.00 0.00 0.00
20190715133515 0 0.0 0.0 0.00 0.00 0.00
20190715133015 0 0.0 0.0 0.00 0.00 0.00
20190715132515 0 8 0.0 0.0 0.00 0.00 0.00
20190715132015 0 0.0 0.0 0.00 0.00 0.00
20190715131515 0 0.0 0.0 0.00 0.00 0.00
20190715131016 0 0.0 0.0 0.00 0.00 0.00
20190715130515 0 0.0 0.0 0.00 0.00 0.00
20190715130015 0 0.0 0.0 0.00 0.00 0.00
20190715125515 0 0.0 0.0 0.00 0.00 0.00
20190715125016 0 0.0 0.0 0.00 0.00 0.00
20190715124515 0 0.0 0.0 0.00 0.00 0.00
20190715124015 0 0.0 0.0 0.00 0.00 0.00
20190715123515 0 0.0 0.0 0.00 0.00 0.00
20190715123016 0 0.0 0.0 0.00 0.00 0.00
20190715122516 0 0.0 0.0 0.00 0.00 0.00
20190715122015 0 0.0 0.0 0.00 0.00 0.00
20190715121515 0 0.0 0.0 0.00 0.00 0.00
20190715121015 0 0.0 0.0 0.00 0.00 0.00
20190715120515 0 0.0 0.0 0.00 0.00 0.00
20190715120015 0 0.0 0.0 0.00 0.00 0.00
20190715115515 0 0.0 0.0 0.00 0.00 0.00
20190715115015 0 0.0 0.0 0.00 0.00 0.00
20190715114515 0 0.0 0.0 0.00 0.00 0.00
20190715114015 0 0.0 0.0 0.00 0.00 0.00
20190715113515 0 0.0 0.0 0.00 0.00 0.00
20190715113016 0 0.0 0.0 0.00 0.00 0.00
20190715112515 0 0.0 0.0 0.00 0.00 0.00
20190715112015 0 0.0 0.0 0.00 0.00 0.00
20190715111515 0 0.0 0.0 0.00 0.00 0.00
20190715111016 0 0.0 0.0 0.00 0.00 0.00
20190715110515 0 0.0 0.0 0.00 0.00 0.00
20190715110015 0 0.0 0.0 0.00 0.00 0.00
20190715105515 0 0.0 0.0 0.00 0.00 0.00
20190715105015 0 0.0 0.0 0.00 0.00 0.00
20190715104515 0 0.0 0.0 0.00 0.00 0.00
20190715104015 0 0.0 0.0 0.00 0.00 0.00
20190715103515 0 0.0 0.0 0.00 0.00 0.00
20190715103016 0 0.0 0.0 0.00 0.00 0.00
20190715102515 0 0.0 0.0 0.00 0.00 0.00
20190715102015 0 0.0 0.0 0.00 0.00 0.00
20190715101515 0 0.0 0.0 0.00 0.00 0.00
20190715101015 0 0.0 0.0 0.00 0.00 0.00
20190715100515 0 0.0 0.0 0.00 0.00 0.00
20190715100015 0 0.0 0.0 0.00 0.00 0.00
20190715095515 0 0.0 0.0 0.00 0.00 0.00
20190715095015 0 0.0 0.0 0.00 0.00 0.00
20190715094515 0 0.0 0.0 0.00 0.00 0.00
20190715094015 0 0.0 0.0 0.00 0.00 0.00
20190715093515 0 0.0 0.0 0.00 0.00 0.00
20190715093015 0 0.0 0.0 0.00 0.00 0.00
20190715092515 0 0.0 0.0 0.00 0.00 0.00
20190715092015 0 0.0 0.0 0.00 0.00 0.00
20190715091515 0 0.0 0.0 0.00 0.00 0.00
20190715091015 0 0.0 0.0 0.00 0.00 0.00
20190715090515 0 0.0 0.0 0.00 0.00 0.00
20190715090015 0 0.0 0.0 0.00 0.00 0.00
20190715085515 0 0.0 0.0 0.00 0.00 0.00
20190715085015 0 0.0 0.0 0.00 0.00 0.00
20190715084515 0 0.0 0.0 0.00 0.00 0.00
20190715084015 0 0.0 0.0 0.00 0.00 0.00
20190715083515 0 0.0 0.0 0.00 0.00 0.00
20190715083015 0 0.0 0.0 0.00 0.00 0.00
20190715082515 0 0.0 0.0 0.00 0.00 0.00
20190715082015 0 0.0 0.0 0.00 0.00 0.00
20190715081516 0 0.0 0.0 0.00 0.00 0.00
20190715081015 0 0.0 0.0 0.00 0.00 0.00
20190715080515 0 0.0 0.0 0.00 0.00 0.00
20190715080016 0 0.0 0.0 0.00 0.00 0.00
20190715075515 0 0.0 0.0 0.00 0.00 0.00
20190715075015 0 0.0 0.0 0.00 0.00 0.00
20190715074515 0 0.0 0.0 0.00 0.00 0.00
20190715074016 0 0.0 0.0 0.00 0.00 0.00
20190715073515 0 0.0 0.0 0.00 0.00 0.00
20190715073015 0 0.0 0.0 0.00 0.00 0.00
20190715072515 0 0.0 0.0 0.00 0.00 0.00
20190715072015 0 0.0 0.0 0.00 0.00 0.00
20190715071516 0 0.0 0.0 0.00 0.00 0.00
20190715071015 0 0.0 0.0 0.00 0.00 0.00
20190715070515 0 0.0 0.0 0.00 0.00 0.00
20190715070015 0 0.0 0.0 0.00 0.00 0.00
20190715065515 0 0.0 0.0 0.00 0.00 0.00
20190715065015 0 0.0 0.0 0.00 0.00 0.00
20190715064515 0 0.0 0.0 0.00 0.00 0.00
20190715064015 0 0.0 0.0 0.00 0.00 0.00
20190715063515 0 0.0 0.0 0.00 0.00 0.00
20190715063016 0 0.0 0.0 0.00 0.00 0.00
20190715062515 0 0.0 0.0 0.00 0.00 0.00
20190715062015 0 0.0 0.0 0.00 0.00 0.00
20190715061516 0 0.0 0.0 0.00 0.00 0.00
20190715061016 0 0.0 0.0 0.00 0.00 0.00
20190715060515 0 0.0 0.0 0.00 0.00 0.00
20190715060015 0 0.0 0.0 0.00 0.00 0.00
20190715055515 0 0.0 0.0 0.00 0.00 0.00
20190715055015 0 0.0 0.0 0.00 0.00 0.00
20190715054515 0 0.0 0.0 0.00 0.00 0.00
20190715054015 0 0.0 0.0 0.00 0.00 0.00
20190715053515 0 0.0 0.0 0.00 0.00 0.00
20190715053015 0 0.0 0.0 0.00 0.00 0.00
20190715052515 0 0.0 0.0 0.00 0.00 0.00
20190715052015 0 0.0 0.0 0.00 0.00 0.00
20190715051515 0 0.0 0.0 0.00 0.00 0.00
20190715051015 0 0.0 0.0 0.00 0.00 0.00
20190715050516 0 0.0 0.0 0.00 0.00 0.00
20190715050015 0 0.0 0.0 0.00 0.00 0.00
20190715045516 0 0.0 0.0 0.00 0.00 0.00
20190715045015 0 0.0 0.0 0.00 0.00 0.00
20190715044515 0 0.0 0.0 0.00 0.00 0.00
20190715044016 0 0.0 0.0 0.00 0.00 0.00
20190715043515 0 0.0 0.0 0.00 0.00 0.00
20190715043015 0 0.0 0.0 0.00 0.00 0.00
20190715042515 0 0.0 0.0 0.00 0.00 0.00
20190715042015 0 0.0 0.0 0.00 0.00 0.00
20190715041515 0 0.0 0.0 0.00 0.00 0.00
20190715041015 0 0.0 0.0 0.00 0.00 0.00
20190715040515 0 0.0 0.0 0.00 0.00 0.00
20190715040015 0 0.0 0.0 0.00 0.00 0.00
20190715035515 0 0.0 0.0 0.00 0.00 0.00
20190715035015 0 0.0 0.0 0.00 0.00 0.00
20190715034515 0 0.0 0.0 0.00 0.00 0.00
20190715034015 0 0.0 0.0 0.00 0.00 0.00
20190715033515 0 0.0 0.0 0.00 0.00 0.00
20190715033015 0 0.0 0.0 0.00 0.00 0.00
20190715032515 0 0.0 0.0 0.00 0.00 0.00
20190715032015 0 0.0 0.0 0.00 0.00 0.00
20190715031515 0 0.0 0.0 0.00 0.00 0.00
20190715031015 0 0.0 0.0 0.00 0.00 0.00
20190715030515 0 0.0 0.0 0.00 0.00 0.00
20190715030015 0 0.0 0.0 0.00 0.00 0.00
20190715025515 0 0.0 0.0 0.00 0.00 0.00
20190715025015 0 0.0 0.0 0.00 0.00 0.00
20190715024515 0 0.0 0.0 0.00 0.00 0.00
20190715024015 0 0.0 0.0 0.00 0.00 0.00
20190715023515 0 0.0 0.0 0.00 0.00 0.00
20190715023015 0 0.0 0.0 0.00 0.00 0.00
20190715022515 0 0.0 0.0 0.00 0.00 0.00
20190715022015 0 0.0 0.0 0.00 0.00 0.00
20190715021515 0 0.0 0.0 0.00 0.00 0.00
20190715021015 0 0.0 0.0 0.00 0.00 0.00
20190715020516 0 0.0 0.0 0.00 0.00 0.00
20190715020015 0 0.0 0.0 0.00 0.00 0.00